Weather History for Montpelier, VT

Change the Weather History Date:

Thursday, September 27, 2012

  Actual Average Record
Temperature  
Mean Temperature 46 °F 53 °F  
Max Temperature 56 °F 64 °F 80 °F (2007)
Min Temperature 36 °F 42 °F 26 °F (1965)
Degree Days  
Heating Degree Days 19 12  
Month to date heating degree days 212 207  
Since 1 July heating degree days 273 315  
Cooling Degree Days 0 0  
Month to date cooling degree days 12 16  
Year to date cooling degree days 291 260  
Moisture  
Dew Point 44 °F    
Average Humidity 77    
Maximum Humidity 100    
Minimum Humidity 54    
Precipitation  
Precipitation 0.03 in 0.12 in 1.64 in (1985)
Month to date precipitation 4.88 2.78  
Year to date precipitation 25.44 27.58  
Sea Level Pressure  
Sea Level Pressure 30.20 in    
Wind  
Wind Speed 3 mph (NW)    
Max Wind Speed 13 mph    
Max Gust Speed 18 mph    
Visibility 7 miles    
Events Fog , Rain    
T = Trace of Precipitation, MM = Missing Value Source: NWS Daily Summary

Daily Weather History Graph

Daily Weather History Graph

Search for Another Location

Airport:

Trip Planner

Search our weather history database for the weather conditions in past years. The results will help you decide how hot, cold, wet, or windy it might be!

Date:

Astronomy

Sep. 27, 2012 Rise Set
Actual Time 6:43 AM EDT 6:37 PM EDT
Civil Twilight 6:14 AM EDT 7:06 PM EDT
Nautical Twilight 5:41 AM EDT 7:39 PM EDT
Astronomical Twilight 5:06 AM EDT 8:14 PM EDT
Moon 5:10 PM EDT (9/27) 4:05 AM EDT (9/27)
Length of Visible Light 12h 51m
Length of Day
11h 53m
Waxing Gibbous, 94% of the Moon is Illuminated
Sep 27
Waxing Gibbous
Sep 29
Full
Oct 8
Last Quarter
Oct 15
New
Oct 21
First Quarter

Hourly Weather History & Observations

Time (EDT) Temp. Windchill Dew Point Humidity Pressure Visibility Wind Dir Wind Speed Gust Speed Precip Events Conditions
12:02 AM 53.6 °F - 53.6 °F 100% 30.08 in 5.0 mi NNW 4.6 mph - 0.03 in Rain Rain
12:35 AM 53.6 °F - 53.6 °F 100% 30.09 in 8.0 mi NNW 5.8 mph - 0.06 in Rain Light Rain
12:49 AM 53.6 °F - 53.6 °F 100% 30.08 in 8.0 mi Calm Calm - 0.06 in   Overcast
12:51 AM 53.1 °F - 53.1 °F 100% 30.09 in 8.0 mi Calm Calm - 0.06 in   Overcast
1:12 AM 53.6 °F - 51.8 °F 94% 30.09 in 8.0 mi West 3.5 mph - N/A   Overcast
1:22 AM 51.8 °F - 51.8 °F 100% 30.10 in 8.0 mi Calm Calm - N/A   Overcast
1:51 AM 52.0 °F - 52.0 °F 100% 30.11 in 7.0 mi Calm Calm - 0.00 in Rain Light Rain
2:08 AM 51.8 °F - 51.8 °F 100% 30.11 in 4.0 mi North 6.9 mph - 0.02 in Rain Light Rain
2:29 AM 51.8 °F - 50.0 °F 94% 30.11 in 10.0 mi NNE 3.5 mph - 0.02 in Rain Light Rain
2:48 AM 51.8 °F - 50.0 °F 94% 30.10 in 10.0 mi NNW 3.5 mph - 0.02 in   Overcast
2:51 AM 51.1 °F - 50.0 °F 96% 30.11 in 10.0 mi NNW 3.5 mph - 0.02 in   Overcast
3:51 AM 48.9 °F - 48.0 °F 97% 30.13 in 10.0 mi Calm Calm - N/A   Mostly Cloudy
4:04 AM 48.2 °F - 48.2 °F 100% 30.13 in 2.0 mi Calm Calm - N/A   Mostly Cloudy
4:06 AM 48.2 °F - 48.2 °F 100% 30.13 in 1.0 mi Calm Calm - N/A   Mostly Cloudy
4:08 AM 48.2 °F - 48.2 °F 100% 30.13 in 0.5 mi Calm Calm - N/A Fog Fog
4:31 AM 48.2 °F - 48.2 °F 100% 30.14 in 1.2 mi Calm Calm - N/A   Overcast
4:34 AM 46.4 °F - 46.4 °F 100% 30.14 in 2.0 mi Calm Calm - N/A   Mostly Cloudy
4:39 AM 46.4 °F - 46.4 °F 100% 30.14 in 5.0 mi Calm Calm - N/A   Mostly Cloudy
4:51 AM 46.0 °F - 46.0 °F 100% 30.16 in 10.0 mi Calm Calm - N/A   Mostly Cloudy
5:51 AM 45.0 °F - 44.1 °F 97% 30.18 in 10.0 mi Calm Calm - 0.01 in   Scattered Clouds
6:51 AM 41.0 °F - 41.0 °F 100% 30.21 in 6.0 mi Calm Calm - N/A   Clear
6:59 AM 41.0 °F - 39.2 °F 93% 30.20 in 1.8 mi Calm Calm - N/A   Clear
7:01 AM 39.2 °F - 39.2 °F 100% 30.20 in 1.0 mi Calm Calm - N/A   Clear
7:08 AM 41.0 °F - 41.0 °F 100% 30.20 in 0.8 mi Calm Calm - N/A   Clear
7:16 AM 41.0 °F - 41.0 °F 100% 30.20 in 1.2 mi Calm Calm - N/A   Clear
7:21 AM 42.8 °F - 42.8 °F 100% 30.21 in 2.5 mi Calm Calm - N/A   Clear
7:28 AM 42.8 °F - 42.8 °F 100% 30.21 in 10.0 mi Calm Calm - N/A   Clear
7:51 AM 45.0 °F - 44.1 °F 97% 30.24 in 10.0 mi Calm Calm - N/A   Scattered Clouds
8:51 AM 46.9 °F - 45.0 °F 93% 30.25 in 10.0 mi NW 3.5 mph - N/A   Partly Cloudy
9:51 AM 50.0 °F - 43.0 °F 77% 30.27 in 10.0 mi NW 5.8 mph - N/A   Clear
10:51 AM 51.1 °F - 42.1 °F 71% 30.29 in 10.0 mi Calm Calm - N/A   Partly Cloudy
11:51 AM 52.0 °F - 39.9 °F 63% 30.28 in 10.0 mi NW 8.1 mph - N/A   Mostly Cloudy
12:51 PM 55.4 °F - 39.2 °F 54% 30.26 in 10.0 mi NW 8.1 mph - N/A   Mostly Cloudy
1:51 PM 55.4 °F - 39.2 °F 54% 30.26 in 10.0 mi WNW 10.4 mph - N/A   Mostly Cloudy
2:51 PM 55.9 °F - 39.0 °F 53% 30.26 in 10.0 mi NW 9.2 mph - N/A   Partly Cloudy
3:51 PM 54.0 °F - 37.9 °F 55% 30.26 in 10.0 mi WNW 11.5 mph - N/A   Scattered Clouds
4:51 PM 54.0 °F - 37.9 °F 55% 30.27 in 10.0 mi NW 8.1 mph - N/A   Overcast
5:51 PM 53.1 °F - 39.0 °F 59% 30.28 in 10.0 mi NNW 3.5 mph - N/A   Partly Cloudy
6:51 PM 46.9 °F - 41.0 °F 80% 30.31 in 10.0 mi Calm Calm - N/A   Partly Cloudy
7:51 PM 41.0 °F - 37.9 °F 89% 30.31 in 10.0 mi Calm Calm - N/A   Clear
8:51 PM 39.9 °F 37.8 °F 37.9 °F 93% 30.33 in 10.0 mi SSW 3.5 mph - N/A   Clear
9:51 PM 39.9 °F - 37.9 °F 93% 30.32 in 10.0 mi Calm Calm - N/A   Clear
10:51 PM 37.9 °F - 37.0 °F 97% 30.32 in 10.0 mi Calm Calm - N/A   Clear
11:51 PM 37.9 °F - 36.0 °F 93% 30.33 in 2.5 mi Calm Calm - N/A   Scattered Clouds
11:54 PM 37.4 °F - 37.4 °F 100% 30.30 in 0.8 mi Calm Calm - N/A   Mist